Tracking 26935 objects as of 5-Feb-2023
HD Live streaming from Space Station
objects crossing your sky now

COSMOS 482 DESCENT CRAFT

Track COSMOS 482 DESCENT CRAFT now!
10-day predictions
COSMOS 482 DESCENT CRAFT is classified as:


NORAD ID: 6073
Int'l Code: 1972-023E
Perigee: 202.4 km
Apogee: 1,741.7 km
Inclination: 52.0 °
Period: 104.4 minutes
Semi major axis: 7343 km
RCS: 0.7153 m2 (medium)
Launch date: March 31, 1972
Source: Commonwealth of Independent States (former USSR) (CIS)
Launch site: TYURATAM MISSILE AND SPACE COMPLEX (TTMTR)
Your satellite tracking list
Your tracking list is empty




NASA's NSSDC Master Catalog

Two Line Element Set (TLE):
1  6073U 72023E   23035.87930388  .00061372  71722-5  17885-3 0  9994
2  6073  52.0142 207.6189 1048078  32.7761 333.3955 13.79711281630920
Source of the keplerian elements: AFSPC